Regional Weather Roundup
Issued by NWS

Home | Current Version | Previous Version | Graphics & Text | Print | Product List | Glossary On
Versions: 1 2 3 4 5 6 7 8 9 10 11 12 13 14 15 16 17 18 19 20 21 22 23 24 25 26 27 28 29 30 31 32 33 34 35 36 37 38 39 40 41 42 43 44 45 46 47 48 49 50
000
ASUS43 KLSX 222359
RWRMO

WEATHER SUMMARY FOR MISSOURI
NATIONAL WEATHER SERVICE SPRINGFIELD MO
700 PM CDT TUE APR 22 2014

NOTE: "FAIR" INDICATES FEW OR NO CLOUDS BELOW 12,000 FEET WITH NO
       SIGNIFICANT WEATHER AND/OR OBSTRUCTIONS TO VISIBILITY.
       CURRENT SKY AND/OR WEATHER CONDITIONS ARE NOT AVAILABLE FOR
       CHILLICOTHE AND FARMINGTON.

MOZ001>031-035>038-043-044-053-054-230100-
...NORTHERN AND WESTERN MISSOURI...

CITY           SKY/WX    TMP DP  RH WIND       PRES   REMARKS
KANSAS CTY INT MOSUNNY   66  33  29 E7        30.01F
6HR MIN TEMP:  62; 6HR MAX TEMP:  69;

KANSAS C DTWN  SUNNY     67  34  29 E7        29.99F
6HR MIN TEMP:  64; 6HR MAX TEMP:  71;

LEE`S SUMMIT   SUNNY     65  36  34 E8        30.01F
6HR MIN TEMP:  62; 6HR MAX TEMP:  69;

ST JOSEPH      SUNNY     66  33  29 E7        30.00F
6HR MIN TEMP:  63; 6HR MAX TEMP:  70;

CHILLICOTHE      N/A     66  32  28 NE6       30.03F
6HR MIN TEMP:  61; 6HR MAX TEMP:  68;

KIRKSVILLE     CLEAR     62  33  33 N9        30.03S
6HR MIN TEMP:  61; 6HR MAX TEMP:  67;


$$
MOZ066>068-077>081-088>096-101>105-230100-
...SOUTHWEST MISSOURI...

CITY           SKY/WX    TMP DP  RH WIND       PRES   REMARKS
SPRINGFIELD    CLEAR     68  38  33 N7        29.99F
6HR MIN TEMP:  65; 6HR MAX TEMP:  71;

JOPLIN         SUNNY     68  36  30 NE6       30.00F
6HR MIN TEMP:  65; 6HR MAX TEMP:  70;


$$
MOZ032>034-039>042-045>050-055>058-069>072-230100-
...CENTRAL MISSOURI...

CITY           SKY/WX    TMP DP  RH WIND       PRES   REMARKS
COLUMBIA       CLEAR     63  37  38 N8        30.01S
6HR MIN TEMP:  61; 6HR MAX TEMP:  67;

JEFFERSON CITY CLEAR     66  32  28 NE10      30.00S
6HR MIN TEMP:  63; 6HR MAX TEMP:  71;

ROLLA          CLEAR     63  35  35 NW8       29.99S
6HR MIN TEMP:  63; 6HR MAX TEMP:  68;

SEDALIA        CLEAR     67  34  29 N6        30.01F
6HR MIN TEMP:  62; 6HR MAX TEMP:  70;

OSAGE BEACH    CLEAR     64  30  27 NW6       30.01F

$$
MOZ051-052-059>065-230100-
...EAST CENTRAL MISSOURI...

CITY           SKY/WX    TMP DP  RH WIND       PRES   REMARKS
ST LOUIS INTL  PTCLDY    66  33  29 NW10      29.99S
6HR MIN TEMP:  65; 6HR MAX TEMP:  69;

SPIRIT OF STL  CLEAR     65  31  28 N7        29.99R
6HR MIN TEMP:  63; 6HR MAX TEMP:  68;

ST CHARLES     CLEAR     65  32  29 N12       29.98S
6HR MIN TEMP:  64; 6HR MAX TEMP:  69;


$$
MOZ072>076-082>087-097>100-106>115-230100-
...SOUTH CENTRAL AND SOUTHEAST MISSOURI...

CITY           SKY/WX    TMP DP  RH WIND       PRES   REMARKS
CAPE GIRARDEAU CLEAR     67  36  31 N14       29.95S
6HR MIN TEMP:  67; 6HR MAX TEMP:  72;

FARMINGTON     CLEAR     66  34  30 N7        29.99S
6HR MIN TEMP:  64; 6HR MAX TEMP:  70;

POPLAR BLUFF   CLEAR     72  37  28 NE9       29.92R
6HR MIN TEMP:  72; 6HR MAX TEMP:  77;

WEST PLAINS    CLEAR     68  34  28 N9        29.98R
6HR MIN TEMP:  68; 6HR MAX TEMP:  74;


$$



USA.gov is the U.S. government's official web portal to all federal, state and local government web resources and services.